Year,Month,Day,Hour,Minute,Value (Times are PST for temperature in C)
2007,04,28,00,00,9.30
2007,04,28,00,01,9.30
2007,04,28,00,02,9.30
2007,04,28,00,03,9.20
2007,04,28,00,04,9.20
2007,04,28,00,05,9.20
2007,04,28,00,06,9.20
2007,04,28,00,07,9.20
2007,04,28,00,08,9.20
2007,04,28,00,09,9.20
2007,04,28,00,10,9.20
2007,04,28,00,11,9.10
2007,04,28,00,12,9.10
2007,04,28,00,13,9.10
2007,04,28,00,14,9.10
2007,04,28,00,15,9.10
2007,04,28,00,16,9.10
2007,04,28,00,17,9.10
2007,04,28,00,18,9.10
2007,04,28,00,19,9.10
2007,04,28,00,20,9.10
2007,04,28,00,21,9.10
2007,04,28,00,22,9.10
2007,04,28,00,23,9.10
2007,04,28,00,24,9.10
2007,04,28,00,25,9.10
2007,04,28,00,26,9.00
2007,04,28,00,27,9.00
2007,04,28,00,28,9.00
2007,04,28,00,29,9.00
2007,04,28,00,30,9.00
2007,04,28,00,31,9.00
2007,04,28,00,32,9.00
2007,04,28,00,33,8.90
2007,04,28,00,34,8.90
2007,04,28,00,35,8.90
2007,04,28,00,36,8.90
2007,04,28,00,37,8.90
2007,04,28,00,38,8.90
2007,04,28,00,39,8.90
2007,04,28,00,40,8.90
2007,04,28,00,41,8.90
2007,04,28,00,42,8.80
2007,04,28,00,43,8.80
2007,04,28,00,44,8.80
2007,04,28,00,45,8.80
2007,04,28,00,46,8.80
2007,04,28,00,47,8.80
2007,04,28,00,48,8.80
2007,04,28,00,49,8.80
2007,04,28,00,50,8.70
2007,04,28,00,51,8.70
2007,04,28,00,52,8.70
2007,04,28,00,53,8.70
2007,04,28,00,54,8.60
2007,04,28,00,55,8.60
2007,04,28,00,56,8.60
2007,04,28,00,57,8.60
2007,04,28,00,58,8.60
2007,04,28,00,59,8.60
2007,04,28,01,00,8.60
2007,04,28,01,01,8.60
2007,04,28,01,02,8.60
2007,04,28,01,03,8.60
2007,04,28,01,04,8.60
2007,04,28,01,05,8.60
2007,04,28,01,06,8.60
2007,04,28,01,07,8.60
2007,04,28,01,08,8.60
2007,04,28,01,09,8.50
2007,04,28,01,10,8.50
2007,04,28,01,11,8.50
2007,04,28,01,12,8.50
2007,04,28,01,13,8.50
2007,04,28,01,14,8.40
2007,04,28,01,15,8.40
2007,04,28,01,16,8.40
2007,04,28,01,17,8.40
2007,04,28,01,18,8.40
2007,04,28,01,19,8.40
2007,04,28,01,20,8.40
2007,04,28,01,21,8.50
2007,04,28,01,22,8.50
2007,04,28,01,23,8.40
2007,04,28,01,24,8.40
2007,04,28,01,25,8.40
2007,04,28,01,26,8.40
2007,04,28,01,27,8.40
2007,04,28,01,28,8.40
2007,04,28,01,29,8.40
2007,04,28,01,30,8.40
2007,04,28,01,31,8.40
2007,04,28,01,32,8.40
2007,04,28,01,33,8.30
2007,04,28,01,34,8.30
2007,04,28,01,35,8.30
2007,04,28,01,36,8.30
2007,04,28,01,37,8.30
2007,04,28,01,38,8.30
2007,04,28,01,39,8.40
2007,04,28,01,40,8.40
2007,04,28,01,41,8.40
2007,04,28,01,42,8.30
2007,04,28,01,43,8.30
2007,04,28,01,44,8.30
2007,04,28,01,45,8.30
2007,04,28,01,46,8.30
2007,04,28,01,47,8.30
2007,04,28,01,48,8.30
2007,04,28,01,49,8.30
2007,04,28,01,50,8.30
2007,04,28,01,51,8.30
2007,04,28,01,52,8.30
2007,04,28,01,53,8.30
2007,04,28,01,54,8.30
2007,04,28,01,55,8.40
2007,04,28,01,56,8.40
2007,04,28,01,57,8.40
2007,04,28,01,58,8.40
2007,04,28,01,59,8.40
2007,04,28,02,00,8.40
2007,04,28,02,01,8.40
2007,04,28,02,02,8.40
2007,04,28,02,03,8.40
2007,04,28,02,04,8.40
2007,04,28,02,05,8.40
2007,04,28,02,06,8.40
2007,04,28,02,07,8.40
2007,04,28,02,08,8.40
2007,04,28,02,09,8.40
2007,04,28,02,10,8.40
2007,04,28,02,11,8.30
2007,04,28,02,12,8.30
2007,04,28,02,13,8.30
2007,04,28,02,14,8.30
2007,04,28,02,15,8.30
2007,04,28,02,16,8.30
2007,04,28,02,17,8.30
2007,04,28,02,18,8.30
2007,04,28,02,19,8.30
2007,04,28,02,20,8.30
2007,04,28,02,21,8.20
2007,04,28,02,22,8.20
2007,04,28,02,23,8.20
2007,04,28,02,24,8.20
2007,04,28,02,25,8.20
2007,04,28,02,26,8.20
2007,04,28,02,27,8.20
2007,04,28,02,28,8.20
2007,04,28,02,29,8.20
2007,04,28,02,30,8.20
2007,04,28,02,31,8.20
2007,04,28,02,32,8.10
2007,04,28,02,33,8.10
2007,04,28,02,34,8.10
2007,04,28,02,35,8.10
2007,04,28,02,36,8.10
2007,04,28,02,37,8.10
2007,04,28,02,38,8.10
2007,04,28,02,39,8.00
2007,04,28,02,40,8.00
2007,04,28,02,41,8.00
2007,04,28,02,42,8.00
2007,04,28,02,43,7.90
2007,04,28,02,44,7.90
2007,04,28,02,45,7.90
2007,04,28,02,46,7.90
2007,04,28,02,47,7.90
2007,04,28,02,48,7.90
2007,04,28,02,49,7.90
2007,04,28,02,50,7.80
2007,04,28,02,51,7.80
2007,04,28,02,52,7.80
2007,04,28,02,53,7.80
2007,04,28,02,54,7.80
2007,04,28,02,55,7.80
2007,04,28,02,56,7.70
2007,04,28,02,57,7.70
2007,04,28,02,58,7.70
2007,04,28,02,59,7.70
2007,04,28,03,00,7.70
2007,04,28,03,01,7.60
2007,04,28,03,02,7.60
2007,04,28,03,03,7.60
2007,04,28,03,04,7.60
2007,04,28,03,05,7.60
2007,04,28,03,06,7.50
2007,04,28,03,07,7.50
2007,04,28,03,08,7.50
2007,04,28,03,09,7.50
2007,04,28,03,10,7.40
2007,04,28,03,11,7.40
2007,04,28,03,12,7.40
2007,04,28,03,13,7.40
2007,04,28,03,14,7.40
2007,04,28,03,15,7.40
2007,04,28,03,16,7.30
2007,04,28,03,17,7.30
2007,04,28,03,18,7.30
2007,04,28,03,19,7.30
2007,04,28,03,20,7.20
2007,04,28,03,21,7.20
2007,04,28,03,22,7.20
2007,04,28,03,23,7.20
2007,04,28,03,24,7.20
2007,04,28,03,25,7.20
2007,04,28,03,26,7.10
2007,04,28,03,27,7.10
2007,04,28,03,28,7.10
2007,04,28,03,29,7.10
2007,04,28,03,30,7.10
2007,04,28,03,31,7.10
2007,04,28,03,32,7.10
2007,04,28,03,33,7.00
2007,04,28,03,34,7.00
2007,04,28,03,35,7.00
2007,04,28,03,36,7.00
2007,04,28,03,37,6.90
2007,04,28,03,38,6.90
2007,04,28,03,39,6.90
2007,04,28,03,40,6.90
2007,04,28,03,41,6.90
2007,04,28,03,42,6.80
2007,04,28,03,43,6.80
2007,04,28,03,44,6.80
2007,04,28,03,45,6.80
2007,04,28,03,46,6.80
2007,04,28,03,47,6.80
2007,04,28,03,48,6.80
2007,04,28,03,49,6.80
2007,04,28,03,50,6.80
2007,04,28,03,51,6.80
2007,04,28,03,52,6.80
2007,04,28,03,53,6.80
2007,04,28,03,54,6.80
2007,04,28,03,55,6.80
2007,04,28,03,56,6.80
2007,04,28,03,57,6.80
2007,04,28,03,58,6.80
2007,04,28,03,59,6.80
2007,04,28,04,00,6.80
2007,04,28,04,01,6.80
2007,04,28,04,02,6.80
2007,04,28,04,03,6.80
2007,04,28,04,04,6.80
2007,04,28,04,05,6.80
2007,04,28,04,06,6.80
2007,04,28,04,07,6.60
2007,04,28,04,08,6.40
2007,04,28,04,09,6.30
2007,04,28,04,10,6.20
2007,04,28,04,11,6.20
2007,04,28,04,12,6.10
2007,04,28,04,13,6.10
2007,04,28,04,14,6.10
2007,04,28,04,15,6.10
2007,04,28,04,16,6.00
2007,04,28,04,17,6.00
2007,04,28,04,18,5.90
2007,04,28,04,19,5.90
2007,04,28,04,20,5.80
2007,04,28,04,21,5.80
2007,04,28,04,22,5.70
2007,04,28,04,23,5.70
2007,04,28,04,24,5.60
2007,04,28,04,25,5.50
2007,04,28,04,26,5.40
2007,04,28,04,27,5.40
2007,04,28,04,28,5.30
2007,04,28,04,29,5.30
2007,04,28,04,30,5.30
2007,04,28,04,31,5.20
2007,04,28,04,32,5.20
2007,04,28,04,33,5.20
2007,04,28,04,34,5.20
2007,04,28,04,35,5.10
2007,04,28,04,36,5.10
2007,04,28,04,37,5.10
2007,04,28,04,38,5.10
2007,04,28,04,39,5.10
2007,04,28,04,40,5.00
2007,04,28,04,41,5.00
2007,04,28,04,42,4.90
2007,04,28,04,43,4.90
2007,04,28,04,44,4.80
2007,04,28,04,45,4.80
2007,04,28,04,46,4.80
2007,04,28,04,47,4.80
2007,04,28,04,48,4.80
2007,04,28,04,49,4.70
2007,04,28,04,50,4.70
2007,04,28,04,51,4.70
2007,04,28,04,52,4.70
2007,04,28,04,53,4.80
2007,04,28,04,54,4.80
2007,04,28,04,55,4.90
2007,04,28,04,56,5.00
2007,04,28,04,57,5.10
2007,04,28,04,58,5.10
2007,04,28,04,59,5.20
2007,04,28,05,00,5.20
2007,04,28,05,01,5.20
2007,04,28,05,02,5.30
2007,04,28,05,03,5.30
2007,04,28,05,04,5.30
2007,04,28,05,05,5.30
2007,04,28,05,06,5.20
2007,04,28,05,07,5.20
2007,04,28,05,08,5.20
2007,04,28,05,09,5.10
2007,04,28,05,10,5.00
2007,04,28,05,11,4.90
2007,04,28,05,12,4.80
2007,04,28,05,13,4.70
2007,04,28,05,14,4.70
2007,04,28,05,15,4.60
2007,04,28,05,16,4.50
2007,04,28,05,17,4.50
2007,04,28,05,18,4.40
2007,04,28,05,19,4.40
2007,04,28,05,20,4.30
2007,04,28,05,21,4.30
2007,04,28,05,22,4.30
2007,04,28,05,23,4.20
2007,04,28,05,24,4.20
2007,04,28,05,25,4.10
2007,04,28,05,26,4.10
2007,04,28,05,27,4.10
2007,04,28,05,28,4.00
2007,04,28,05,29,4.00
2007,04,28,05,30,4.00
2007,04,28,05,31,3.90
2007,04,28,05,32,3.90
2007,04,28,05,33,3.80
2007,04,28,05,34,3.80
2007,04,28,05,35,3.80
2007,04,28,05,36,3.80
2007,04,28,05,37,3.80
2007,04,28,05,38,3.90
2007,04,28,05,39,3.90
2007,04,28,05,40,3.90
2007,04,28,05,41,3.90
2007,04,28,05,42,3.90
2007,04,28,05,43,3.80
2007,04,28,05,44,3.80
2007,04,28,05,45,3.70
2007,04,28,05,46,3.70
2007,04,28,05,47,3.70
2007,04,28,05,48,3.70
2007,04,28,05,49,3.70
2007,04,28,05,50,3.70
2007,04,28,05,51,3.70
2007,04,28,05,52,3.70
2007,04,28,05,53,3.70
2007,04,28,05,54,3.70
2007,04,28,05,55,3.70
2007,04,28,05,56,3.70
2007,04,28,05,57,3.70
2007,04,28,05,58,3.60
2007,04,28,05,59,3.60
2007,04,28,06,00,3.50
2007,04,28,06,01,3.50
2007,04,28,06,02,3.40
2007,04,28,06,03,3.40
2007,04,28,06,04,3.40
2007,04,28,06,05,3.30
2007,04,28,06,06,3.30
2007,04,28,06,07,3.30
2007,04,28,06,08,3.30
2007,04,28,06,09,3.30
2007,04,28,06,10,3.30
2007,04,28,06,11,3.30
2007,04,28,06,12,3.30
2007,04,28,06,13,3.30
2007,04,28,06,14,3.40
2007,04,28,06,15,3.40
2007,04,28,06,16,3.40
2007,04,28,06,17,3.40
2007,04,28,06,18,3.40
2007,04,28,06,19,3.40
2007,04,28,06,20,3.40
2007,04,28,06,21,3.40
2007,04,28,06,22,3.50
2007,04,28,06,23,3.50
2007,04,28,06,24,3.50
2007,04,28,06,25,3.50
2007,04,28,06,26,3.60
2007,04,28,06,27,3.60
2007,04,28,06,28,3.60
2007,04,28,06,29,3.70
2007,04,28,06,30,3.70
2007,04,28,06,31,3.70
2007,04,28,06,32,3.70
2007,04,28,06,33,3.70
2007,04,28,06,34,3.70
2007,04,28,06,35,3.70
2007,04,28,06,36,3.60
2007,04,28,06,37,3.60
2007,04,28,06,38,3.60
2007,04,28,06,39,3.60
2007,04,28,06,40,3.60
2007,04,28,06,41,3.60
2007,04,28,06,42,3.60
2007,04,28,06,43,3.60
2007,04,28,06,44,3.60
2007,04,28,06,45,3.60
2007,04,28,06,46,3.60
2007,04,28,06,47,3.60
2007,04,28,06,48,3.60
2007,04,28,06,49,3.60
2007,04,28,06,50,3.70
2007,04,28,06,51,3.70
2007,04,28,06,52,3.70
2007,04,28,06,53,3.70
2007,04,28,06,54,3.70
2007,04,28,06,55,3.70
2007,04,28,06,56,3.70
2007,04,28,06,57,3.80
2007,04,28,06,58,3.80
2007,04,28,06,59,3.80
2007,04,28,07,00,3.80
2007,04,28,07,01,3.90
2007,04,28,07,02,3.90
2007,04,28,07,03,4.00
2007,04,28,07,04,4.00
2007,04,28,07,05,4.10
2007,04,28,07,06,4.10
2007,04,28,07,07,4.20
2007,04,28,07,08,4.30
2007,04,28,07,09,4.40
2007,04,28,07,10,4.50
2007,04,28,07,11,4.50
2007,04,28,07,12,4.60
2007,04,28,07,13,4.70
2007,04,28,07,14,4.70
2007,04,28,07,15,4.70
2007,04,28,07,16,4.70
2007,04,28,07,17,4.80
2007,04,28,07,18,4.80
2007,04,28,07,19,4.80
2007,04,28,07,20,4.80
2007,04,28,07,21,4.80
2007,04,28,07,22,4.80
2007,04,28,07,23,4.90
2007,04,28,07,24,4.90
2007,04,28,07,25,4.90
2007,04,28,07,26,4.90
2007,04,28,07,27,5.00
2007,04,28,07,28,5.00
2007,04,28,07,29,5.10
2007,04,28,07,30,5.10
2007,04,28,07,31,5.10
2007,04,28,07,32,5.20
2007,04,28,07,33,5.20
2007,04,28,07,34,5.20
2007,04,28,07,35,5.20
2007,04,28,07,36,5.30
2007,04,28,07,37,5.30
2007,04,28,07,38,5.30
2007,04,28,07,39,5.30
2007,04,28,07,40,5.30
2007,04,28,07,41,5.30
2007,04,28,07,42,5.40
2007,04,28,07,43,5.40
2007,04,28,07,44,5.50
2007,04,28,07,45,5.50
2007,04,28,07,46,5.60
2007,04,28,07,47,5.60
2007,04,28,07,48,5.70
2007,04,28,07,49,5.80
2007,04,28,07,50,5.90
2007,04,28,07,51,6.00
2007,04,28,07,52,6.10
2007,04,28,07,53,6.20
2007,04,28,07,54,6.30
2007,04,28,07,55,6.30
2007,04,28,07,56,6.40
2007,04,28,07,57,6.40
2007,04,28,07,58,6.50
2007,04,28,07,59,6.50
2007,04,28,08,00,6.50
2007,04,28,08,01,6.60
2007,04,28,08,02,6.60
2007,04,28,08,03,6.60
2007,04,28,08,04,6.70
2007,04,28,08,05,6.80
2007,04,28,08,06,6.80
2007,04,28,08,07,6.80
2007,04,28,08,08,6.90
2007,04,28,08,09,6.90
2007,04,28,08,10,6.90
2007,04,28,08,11,7.00
2007,04,28,08,12,7.10
2007,04,28,08,13,7.10
2007,04,28,08,14,7.20
2007,04,28,08,15,7.20
2007,04,28,08,16,7.30
2007,04,28,08,17,7.30
2007,04,28,08,18,7.40
2007,04,28,08,19,7.40
2007,04,28,08,20,7.50
2007,04,28,08,21,7.60
2007,04,28,08,22,7.60
2007,04,28,08,23,7.70
2007,04,28,08,24,7.70
2007,04,28,08,25,7.80
2007,04,28,08,26,7.80
2007,04,28,08,27,7.90
2007,04,28,08,28,8.00
2007,04,28,08,29,8.00
2007,04,28,08,30,8.10
2007,04,28,08,31,8.10
2007,04,28,08,32,8.20
2007,04,28,08,33,8.30
2007,04,28,08,34,8.40
2007,04,28,08,35,8.50
2007,04,28,08,36,8.60
2007,04,28,08,37,8.70
2007,04,28,08,38,8.70
2007,04,28,08,39,8.80
2007,04,28,08,40,8.90
2007,04,28,08,41,9.00
2007,04,28,08,42,9.20
2007,04,28,08,43,9.40
2007,04,28,08,44,9.50
2007,04,28,08,45,9.70
2007,04,28,08,46,9.80
2007,04,28,08,47,9.90
2007,04,28,08,48,10.00
2007,04,28,08,49,10.00
2007,04,28,08,50,10.10
2007,04,28,08,51,10.10
2007,04,28,08,52,10.10
2007,04,28,08,53,10.20
2007,04,28,08,54,10.20
2007,04,28,08,55,10.20
2007,04,28,08,56,10.30
2007,04,28,08,57,10.40
2007,04,28,08,58,10.40
2007,04,28,08,59,10.40
2007,04,28,09,00,10.50
2007,04,28,09,01,10.50
2007,04,28,09,02,10.50
2007,04,28,09,03,10.60
2007,04,28,09,04,10.60
2007,04,28,09,05,10.60
2007,04,28,09,06,10.60
2007,04,28,09,07,10.50
2007,04,28,09,08,10.40
2007,04,28,09,09,10.40
2007,04,28,09,10,10.40
2007,04,28,09,11,10.40
2007,04,28,09,12,10.40
2007,04,28,09,13,10.30
2007,04,28,09,14,10.20
2007,04,28,09,15,10.20
2007,04,28,09,16,10.30
2007,04,28,09,17,10.30
2007,04,28,09,18,10.40
2007,04,28,09,19,10.50
2007,04,28,09,20,10.50
2007,04,28,09,21,10.60
2007,04,28,09,22,10.60
2007,04,28,09,23,10.50
2007,04,28,09,24,10.40
2007,04,28,09,25,10.40
2007,04,28,09,26,10.30
2007,04,28,09,27,10.30
2007,04,28,09,28,10.20
2007,04,28,09,29,10.30
2007,04,28,09,30,10.30
2007,04,28,09,31,10.40
2007,04,28,09,32,10.50
2007,04,28,09,33,10.60
2007,04,28,09,34,10.70
2007,04,28,09,35,10.80
2007,04,28,09,36,10.90
2007,04,28,09,37,11.00
2007,04,28,09,38,11.00
2007,04,28,09,39,10.90
2007,04,28,09,40,10.90
2007,04,28,09,41,10.90
2007,04,28,09,42,10.90
2007,04,28,09,43,11.00
2007,04,28,09,44,11.10
2007,04,28,09,45,11.10
2007,04,28,09,46,11.00
2007,04,28,09,47,10.90
2007,04,28,09,48,10.90
2007,04,28,09,49,10.90
2007,04,28,09,50,10.80
2007,04,28,09,51,10.80
2007,04,28,09,52,10.80
2007,04,28,09,53,10.80
2007,04,28,09,54,10.90
2007,04,28,09,55,11.00
2007,04,28,09,56,11.00
2007,04,28,09,57,11.10
2007,04,28,09,58,11.10
2007,04,28,09,59,11.10
2007,04,28,10,00,11.10
2007,04,28,10,01,11.20
2007,04,28,10,02,11.20
2007,04,28,10,03,11.20
2007,04,28,10,04,11.20
2007,04,28,10,05,11.20
2007,04,28,10,06,11.20
2007,04,28,10,07,11.30
2007,04,28,10,08,11.40
2007,04,28,10,09,11.50
2007,04,28,10,10,11.50
2007,04,28,10,11,11.50
2007,04,28,10,12,11.60
2007,04,28,10,13,11.60
2007,04,28,10,14,11.40
2007,04,28,10,15,11.30
2007,04,28,10,16,11.20
2007,04,28,10,17,11.10
2007,04,28,10,18,11.10
2007,04,28,10,19,11.10
2007,04,28,10,20,11.20
2007,04,28,10,21,11.30
2007,04,28,10,22,11.40
2007,04,28,10,23,11.50
2007,04,28,10,24,11.60
2007,04,28,10,25,11.60
2007,04,28,10,26,11.70
2007,04,28,10,27,11.70
2007,04,28,10,28,11.70
2007,04,28,10,29,11.70
2007,04,28,10,30,11.70
2007,04,28,10,31,11.70
2007,04,28,10,32,11.60
2007,04,28,10,33,11.60
2007,04,28,10,34,11.60
2007,04,28,10,35,11.60
2007,04,28,10,36,11.60
2007,04,28,10,37,11.60
2007,04,28,10,38,11.60
2007,04,28,10,39,11.60
2007,04,28,10,40,11.70
2007,04,28,10,41,11.80
2007,04,28,10,42,11.80
2007,04,28,10,43,11.80
2007,04,28,10,44,11.70
2007,04,28,10,45,11.60
2007,04,28,10,46,11.60
2007,04,28,10,47,11.60
2007,04,28,10,48,11.60
2007,04,28,10,49,11.60
2007,04,28,10,50,11.60
2007,04,28,10,51,11.50
2007,04,28,10,52,11.60
2007,04,28,10,53,11.60
2007,04,28,10,54,11.70
2007,04,28,10,55,11.70
2007,04,28,10,56,11.70
2007,04,28,10,57,11.70
2007,04,28,10,58,11.70
2007,04,28,10,59,11.70
2007,04,28,11,00,11.70
2007,04,28,11,01,11.80
2007,04,28,11,02,11.70
2007,04,28,11,03,11.60
2007,04,28,11,04,11.70
2007,04,28,11,05,11.70
2007,04,28,11,06,11.70
2007,04,28,11,07,11.80
2007,04,28,11,08,11.80
2007,04,28,11,09,11.80
2007,04,28,11,10,11.80
2007,04,28,11,11,11.90
2007,04,28,11,12,11.90
2007,04,28,11,13,11.80
2007,04,28,11,14,11.80
2007,04,28,11,15,11.80
2007,04,28,11,16,11.80
2007,04,28,11,17,11.80
2007,04,28,11,18,11.70
2007,04,28,11,19,11.60
2007,04,28,11,20,11.50
2007,04,28,11,21,11.50
2007,04,28,11,22,11.50
2007,04,28,11,23,11.60
2007,04,28,11,24,11.60
2007,04,28,11,25,11.60
2007,04,28,11,26,11.60
2007,04,28,11,27,11.70
2007,04,28,11,28,11.70
2007,04,28,11,29,11.70
2007,04,28,11,30,11.80
2007,04,28,11,31,11.80
2007,04,28,11,32,11.90
2007,04,28,11,33,11.90
2007,04,28,11,34,11.90
2007,04,28,11,35,11.90
2007,04,28,11,36,11.90
2007,04,28,11,37,11.90
2007,04,28,11,38,12.00
2007,04,28,11,39,12.00
2007,04,28,11,40,12.10
2007,04,28,11,41,12.00
2007,04,28,11,42,12.00
2007,04,28,11,43,11.90
2007,04,28,11,44,11.90
2007,04,28,11,45,11.90
2007,04,28,11,46,12.00
2007,04,28,11,47,12.00
2007,04,28,11,48,12.10
2007,04,28,11,49,12.10
2007,04,28,11,50,12.10
2007,04,28,11,51,12.10
2007,04,28,11,52,12.10
2007,04,28,11,53,12.20
2007,04,28,11,54,12.30
2007,04,28,11,55,12.40
2007,04,28,11,56,12.40
2007,04,28,11,57,12.40
2007,04,28,11,58,12.50
2007,04,28,11,59,12.50
2007,04,28,12,00,12.50
2007,04,28,12,01,12.60
2007,04,28,12,02,12.70
2007,04,28,12,03,12.70
2007,04,28,12,04,12.60
2007,04,28,12,05,12.60
2007,04,28,12,06,12.50
2007,04,28,12,07,12.50
2007,04,28,12,08,12.40
2007,04,28,12,09,12.30
2007,04,28,12,10,12.20
2007,04,28,12,11,12.20
2007,04,28,12,12,12.20
2007,04,28,12,13,12.20
2007,04,28,12,14,12.30
2007,04,28,12,15,12.30
2007,04,28,12,16,12.30
2007,04,28,12,17,12.30
2007,04,28,12,18,12.20
2007,04,28,12,19,12.20
2007,04,28,12,20,12.20
2007,04,28,12,21,12.20
2007,04,28,12,22,12.20
2007,04,28,12,23,12.20
2007,04,28,12,24,12.20
2007,04,28,12,25,12.30
2007,04,28,12,26,12.30
2007,04,28,12,27,12.30
2007,04,28,12,28,12.30
2007,04,28,12,29,12.40
2007,04,28,12,30,12.50
2007,04,28,12,31,12.60
2007,04,28,12,32,12.60
2007,04,28,12,33,12.60
2007,04,28,12,34,12.50
2007,04,28,12,35,12.40
2007,04,28,12,36,12.30
2007,04,28,12,37,12.30
2007,04,28,12,38,12.30
2007,04,28,12,39,12.40
2007,04,28,12,40,12.30
2007,04,28,12,41,12.40
2007,04,28,12,42,12.30
2007,04,28,12,43,12.30
2007,04,28,12,44,12.30
2007,04,28,12,45,12.40
2007,04,28,12,46,12.40
2007,04,28,12,47,12.50
2007,04,28,12,48,12.60
2007,04,28,12,49,12.70
2007,04,28,12,50,12.70
2007,04,28,12,51,12.60
2007,04,28,12,52,12.60
2007,04,28,12,53,12.70
2007,04,28,12,54,12.80
2007,04,28,12,55,12.80
2007,04,28,12,56,12.90
2007,04,28,12,57,12.90
2007,04,28,12,58,12.90
2007,04,28,12,59,13.00
2007,04,28,13,00,13.00
2007,04,28,13,01,12.90
2007,04,28,13,02,12.90
2007,04,28,13,03,12.80
2007,04,28,13,04,12.80
2007,04,28,13,05,12.80
2007,04,28,13,06,12.80
2007,04,28,13,07,12.70
2007,04,28,13,08,12.70
2007,04,28,13,09,12.70
2007,04,28,13,10,12.80
2007,04,28,13,11,12.80
2007,04,28,13,12,12.90
2007,04,28,13,13,12.80
2007,04,28,13,14,12.80
2007,04,28,13,15,12.80
2007,04,28,13,16,12.80
2007,04,28,13,17,12.90
2007,04,28,13,18,12.90
2007,04,28,13,19,12.90
2007,04,28,13,20,12.90
2007,04,28,13,21,12.80
2007,04,28,13,22,12.80
2007,04,28,13,23,12.80
2007,04,28,13,24,12.90
2007,04,28,13,25,13.00
2007,04,28,13,26,13.00
2007,04,28,13,27,13.10
2007,04,28,13,28,13.10
2007,04,28,13,29,13.10
2007,04,28,13,30,13.20
2007,04,28,13,31,13.20
2007,04,28,13,32,13.10
2007,04,28,13,33,13.00
2007,04,28,13,34,12.90
2007,04,28,13,35,12.80
2007,04,28,13,36,12.80
2007,04,28,13,37,12.80
2007,04,28,13,38,12.70
2007,04,28,13,39,12.70
2007,04,28,13,40,12.70
2007,04,28,13,41,12.80
2007,04,28,13,42,12.90
2007,04,28,13,43,12.90
2007,04,28,13,44,12.90
2007,04,28,13,45,13.00
2007,04,28,13,46,13.10
2007,04,28,13,47,13.10
2007,04,28,13,48,13.10
2007,04,28,13,49,13.10
2007,04,28,13,50,13.20
2007,04,28,13,51,13.20
2007,04,28,13,52,13.20
2007,04,28,13,53,13.10
2007,04,28,13,54,13.10
2007,04,28,13,55,13.10
2007,04,28,13,56,13.10
2007,04,28,13,57,13.20
2007,04,28,13,58,13.30
2007,04,28,13,59,13.30
2007,04,28,14,00,13.20
2007,04,28,14,01,13.10
2007,04,28,14,02,12.90
2007,04,28,14,03,12.80
2007,04,28,14,04,12.80
2007,04,28,14,05,12.80
2007,04,28,14,06,12.80
2007,04,28,14,07,12.80
2007,04,28,14,08,12.80
2007,04,28,14,09,12.90
2007,04,28,14,10,13.00
2007,04,28,14,11,13.00
2007,04,28,14,12,13.00
2007,04,28,14,13,13.00
2007,04,28,14,14,13.10
2007,04,28,14,15,13.10
2007,04,28,14,16,13.10
2007,04,28,14,17,13.10
2007,04,28,14,18,13.10
2007,04,28,14,19,13.10
2007,04,28,14,20,13.10
2007,04,28,14,21,13.10
2007,04,28,14,22,13.10
2007,04,28,14,23,13.10
2007,04,28,14,24,13.10
2007,04,28,14,25,13.20
2007,04,28,14,26,13.10
2007,04,28,14,27,13.10
2007,04,28,14,28,13.10
2007,04,28,14,29,13.20
2007,04,28,14,30,13.30
2007,04,28,14,31,13.40
2007,04,28,14,32,13.50
2007,04,28,14,33,13.50
2007,04,28,14,34,13.60
2007,04,28,14,35,13.50
2007,04,28,14,36,13.40
2007,04,28,14,37,13.40
2007,04,28,14,38,13.40
2007,04,28,14,39,13.20
2007,04,28,14,40,13.20
2007,04,28,14,41,13.20
2007,04,28,14,42,13.20
2007,04,28,14,43,13.20
2007,04,28,14,44,13.10
2007,04,28,14,45,13.10
2007,04,28,14,46,13.00
2007,04,28,14,47,13.00
2007,04,28,14,48,13.00
2007,04,28,14,49,13.00
2007,04,28,14,50,13.00
2007,04,28,14,51,13.00
2007,04,28,14,52,13.10
2007,04,28,14,53,13.20
2007,04,28,14,54,13.30
2007,04,28,14,55,13.30
2007,04,28,14,56,13.40
2007,04,28,14,57,13.50
2007,04,28,14,58,13.60
2007,04,28,14,59,13.70
2007,04,28,15,00,13.70
2007,04,28,15,01,13.70
2007,04,28,15,02,13.70
2007,04,28,15,03,13.70
2007,04,28,15,04,13.90
2007,04,28,15,05,13.90
2007,04,28,15,06,14.00
2007,04,28,15,07,14.10
2007,04,28,15,08,14.10
2007,04,28,15,09,14.10
2007,04,28,15,10,14.10
2007,04,28,15,11,14.10
2007,04,28,15,12,14.10
2007,04,28,15,13,14.10
2007,04,28,15,14,14.10
2007,04,28,15,15,14.00
2007,04,28,15,16,13.90
2007,04,28,15,17,13.90
2007,04,28,15,18,13.90
2007,04,28,15,19,13.80
2007,04,28,15,20,13.80
2007,04,28,15,21,13.80
2007,04,28,15,22,13.90
2007,04,28,15,23,14.00
2007,04,28,15,24,13.90
2007,04,28,15,25,13.80
2007,04,28,15,26,13.80
2007,04,28,15,27,13.70
2007,04,28,15,28,13.70
2007,04,28,15,29,13.60
2007,04,28,15,30,13.60
2007,04,28,15,31,13.60
2007,04,28,15,32,13.50
2007,04,28,15,33,13.40
2007,04,28,15,34,13.40
2007,04,28,15,35,13.30
2007,04,28,15,36,13.40
2007,04,28,15,37,13.40
2007,04,28,15,38,13.40
2007,04,28,15,39,13.50
2007,04,28,15,40,13.40
2007,04,28,15,41,13.40
2007,04,28,15,42,13.40
2007,04,28,15,43,13.50
2007,04,28,15,44,13.60
2007,04,28,15,45,13.70
2007,04,28,15,46,13.70
2007,04,28,15,47,13.70
2007,04,28,15,48,13.70
2007,04,28,15,49,13.70
2007,04,28,15,50,13.60
2007,04,28,15,51,13.50
2007,04,28,15,52,13.50
2007,04,28,15,53,13.60
2007,04,28,15,54,13.70
2007,04,28,15,55,13.70
2007,04,28,15,56,13.80
2007,04,28,15,57,13.80
2007,04,28,15,58,13.80
2007,04,28,15,59,13.70
2007,04,28,16,00,13.70
2007,04,28,16,01,13.60
2007,04,28,16,02,13.60
2007,04,28,16,03,13.60
2007,04,28,16,04,13.60
2007,04,28,16,05,13.60
2007,04,28,16,06,13.60
2007,04,28,16,07,13.60
2007,04,28,16,08,13.60
2007,04,28,16,09,13.50
2007,04,28,16,10,13.40
2007,04,28,16,11,13.30
2007,04,28,16,12,13.20
2007,04,28,16,13,13.10
2007,04,28,16,14,13.00
2007,04,28,16,15,12.90
2007,04,28,16,16,12.80
2007,04,28,16,17,12.80
2007,04,28,16,18,12.80
2007,04,28,16,19,12.90
2007,04,28,16,20,13.10
2007,04,28,16,21,13.20
2007,04,28,16,22,13.30
2007,04,28,16,23,13.30
2007,04,28,16,24,13.30
2007,04,28,16,25,13.30
2007,04,28,16,26,13.30
2007,04,28,16,27,13.20
2007,04,28,16,28,13.20
2007,04,28,16,29,13.10
2007,04,28,16,30,13.00
2007,04,28,16,31,12.90
2007,04,28,16,32,13.00
2007,04,28,16,33,13.00
2007,04,28,16,34,13.10
2007,04,28,16,35,13.10
2007,04,28,16,36,13.10
2007,04,28,16,37,13.10
2007,04,28,16,38,13.10
2007,04,28,16,39,13.10
2007,04,28,16,40,13.20
2007,04,28,16,41,13.20
2007,04,28,16,42,13.30
2007,04,28,16,43,13.30
2007,04,28,16,44,13.40
2007,04,28,16,45,13.40
2007,04,28,16,46,13.50
2007,04,28,16,47,13.50
2007,04,28,16,48,13.50
2007,04,28,16,49,13.40
2007,04,28,16,50,13.30
2007,04,28,16,51,13.30
2007,04,28,16,52,13.30
2007,04,28,16,53,13.40
2007,04,28,16,54,13.40
2007,04,28,16,55,13.40
2007,04,28,16,56,13.30
2007,04,28,16,57,13.30
2007,04,28,16,58,13.30
2007,04,28,16,59,13.30
2007,04,28,17,00,13.30
2007,04,28,17,01,13.30
2007,04,28,17,02,13.20
2007,04,28,17,03,13.10
2007,04,28,17,04,13.10
2007,04,28,17,05,13.00
2007,04,28,17,06,12.90
2007,04,28,17,07,12.80
2007,04,28,17,08,12.90
2007,04,28,17,09,13.00
2007,04,28,17,10,13.00
2007,04,28,17,11,13.10
2007,04,28,17,12,13.10
2007,04,28,17,13,13.10
2007,04,28,17,14,13.10
2007,04,28,17,15,13.20
2007,04,28,17,16,13.20
2007,04,28,17,17,13.10
2007,04,28,17,18,13.00
2007,04,28,17,19,13.00
2007,04,28,17,20,13.10
2007,04,28,17,21,13.10
2007,04,28,17,22,13.10
2007,04,28,17,23,13.30
2007,04,28,17,24,13.40
2007,04,28,17,25,13.40
2007,04,28,17,26,13.40
2007,04,28,17,27,13.40
2007,04,28,17,28,13.40
2007,04,28,17,29,13.30
2007,04,28,17,30,13.20
2007,04,28,17,31,13.20
2007,04,28,17,32,13.20
2007,04,28,17,33,13.20
2007,04,28,17,34,13.20
2007,04,28,17,35,13.10
2007,04,28,17,36,13.10
2007,04,28,17,37,13.10
2007,04,28,17,38,13.10
2007,04,28,17,39,13.10
2007,04,28,17,40,13.00
2007,04,28,17,41,13.00
2007,04,28,17,42,13.00